Location: Rowland
(34.5359°N, 79.2929°W)
Time: 21:29:49
(UTC+00:00)

A-11 Canister half - Pass Details

Date: 07 October 2022
Orbit: 1516 x 1684 km, 47.2° (Epoch: 28 November)

Event Time Altitude Azimuth Distance (km) Brightness Sun altitude
Rises 04:07:52 0° 291° (WNW) 4,787 11.9 -58.1°
Reaches altitude 10° 04:11:20 10° 300° (WNW) 3,777 11.3 -58.4°
Enters shadow 04:12:54 15° 305° (NW) 3,355 11.0 -58.5°
